Home   Weather   Berlin   Past weeks
Flag for Germany

Past Weather in Berlin, Germany — Yesterday and Last 2 Weeks

Now
73 °F

Passing clouds.


Feels Like: 77 °F
Forecast: 79 / 55 °F
Wind: 9 mph from South

Location: Berlin-Tegel

Current Time: Apr 25, 2019 at 1:58:45 pm

Latest Report: Apr 25, 2019 at 1:20 pm


Visibility: N/A

Pressure: 29.89 "Hg

Humidity: 31%

Dew Point: 41 °F

Location of BerlinLocation

Past Weather in Berlin — Graph

°F

Berlin Temperature Yesterday

Maximum temperature yesterday: 75 °F (at 4:50 pm)
Minimum temperature yesterday: 55 °F (at 4:50 am)
Average temperature yesterday: 64 °F

High & Low Weather Summary for the Past Weeks

 TemperatureHumidityPressure
High75 °F (Apr 24, 4:50 pm)93% (Apr 14, 9:20 am)30.54 "Hg (Apr 14, 9:20 am)
Low34 °F (Apr 11, 6:20 am)20% (Apr 20, 6:20 pm)29.68 "Hg (Apr 24, 5:50 pm)
Average52 °F51%30.20 "Hg
* Reported Apr 10 12:20 pm — Apr 25 12:50 pm, Berlin. Weather by CustomWeather, © 2019

Note: Actual official high and low records may vary slightly from our data, if they occured in-between our weather recording intervals... More about our weather records

Advertising

Berlin Weather History for the Previous 24 Hours

Scroll right to see more
 ConditionsComfort  
Time TempWeatherWind HumidityBarometerVisibility
12:50 pm
Thu, Apr 25
72 °FPassing clouds.9 mph31%29.89 "HgN/A
12:20 pm72 °FPassing clouds.6 mph38%29.89 "HgN/A
11:50 am70 °FSunny.6 mph35%29.89 "Hg10 mi
11:20 am66 °FPassing clouds.7 mph43%29.89 "HgN/A
10:50 am66 °FPassing clouds.6 mph46%29.89 "HgN/A
10:20 am63 °FPassing clouds.7 mph56%29.89 "HgN/A
9:50 am61 °FPassing clouds.9 mph59%29.89 "HgN/A
9:20 am61 °FPassing clouds.7 mph59%29.89 "HgN/A
8:50 am59 °FPassing clouds.8 mph68%29.89 "HgN/A
8:20 am59 °FSunny.12 mph68%29.86 "Hg10 mi
7:50 am57 °FSunny.14 mph72%29.86 "Hg10 mi
7:20 am57 °FPassing clouds.9 mph77%29.83 "HgN/A
6:50 am54 °FSunny.8 mph88%29.83 "Hg10 mi
6:20 am55 °FSunny.9 mph77%29.80 "Hg10 mi
5:50 am57 °FSunny.14 mph77%29.80 "Hg10 mi
5:20 am59 °FClear.14 mph77%29.77 "Hg10 mi
4:50 am59 °FClear.10 mph77%29.77 "Hg10 mi
4:20 am59 °FPassing clouds.5 mph82%29.74 "HgN/A
3:50 am59 °FPassing clouds.5 mph77%29.74 "HgN/A
3:20 am59 °FPassing clouds.5 mph77%29.74 "HgN/A
2:50 am61 °FSprinkles. Passing clouds.6 mph72%29.74 "HgN/A
2:20 am63 °FThundershowers. Passing clouds.9 mph64%29.74 "HgN/A
1:50 am63 °FPassing clouds.8 mph64%29.71 "HgN/A
1:20 am61 °FClear.9 mph63%29.71 "Hg10 mi
12:50 am63 °FClear.9 mph59%29.71 "Hg10 mi
12:20 am63 °FClear.9 mph59%29.71 "Hg10 mi
11:50 pm
Wed, Apr 24
63 °FClear.10 mph59%29.71 "Hg10 mi
11:20 pm64 °FClear.10 mph56%29.71 "Hg10 mi
10:50 pm64 °FClear.10 mph56%29.71 "Hg10 mi
10:20 pm64 °FClear.12 mph56%29.71 "Hg10 mi
9:20 pm66 °FClear.13 mph52%29.74 "Hg10 mi
8:50 pm68 °FClear.14 mph49%29.71 "Hg10 mi
8:20 pm68 °FPassing clouds.13 mph49%29.71 "HgN/A
7:50 pm70 °FSunny.14 mph46%29.71 "Hg10 mi
7:20 pm72 °FPassing clouds.13 mph44%29.71 "HgN/A
6:50 pm73 °FPassing clouds.14 mph41%29.68 "HgN/A
6:20 pm73 °FPassing clouds.15 mph36%29.68 "HgN/A
5:50 pm75 °FPassing clouds.15 mph36%29.68 "HgN/A
5:20 pm73 °FPassing clouds.15 mph38%29.71 "HgN/A
4:50 pm75 °FPassing clouds.17 mph36%29.71 "HgN/A
4:20 pm73 °FPassing clouds.14 mph38%29.71 "HgN/A
3:50 pm73 °FPassing clouds.14 mph38%29.71 "HgN/A
3:20 pm73 °FPassing clouds.14 mph38%29.71 "HgN/A
2:50 pm72 °FPassing clouds.15 mph41%29.74 "HgN/A
2:20 pm70 °FPassing clouds.15 mph43%29.74 "HgN/A
1:50 pm70 °FPassing clouds.13 mph46%29.74 "HgN/A
1:20 pm70 °FPassing clouds.15 mph46%29.74 "HgN/A
Weather by CustomWeather, © 2019

See weather overview